Domov               UVHVVR             MKGP            O straneh              
ZDRAVSTVENO VARSTVO RASTLIN
  MREŽA AGROMET. POSTAJ
 ► PROGNOSTIČNA OBVESTILA
AGROMETEOROLOŠKI PODATKI -
ARSO
OBVLADOVANJE TVEGANJ ZARADI
NEUGODNIH VREMENSKIH RAZMER
  ► NARAVNE NESREČE
  ► SUŠA/MOČA
  ► NAMAKANJE
  ► ŽLED (gozdarstvo)
KARTOGRAFSKI PRIKAZI
SPLETNE POVEZAVE
PROJEKTI IN PUBLIKACIJE

AGROMETEOROLOŠKA MREŽA: VREMENSKE POSTAJE IN FENOLOŠKA OPAZOVANJA

Pregled podatkov za lokacijo BOROVNICA, meteorološka postaja 27469

Pregled senzorjev na lokaciji

ID Ime Zadnja
vrednost
Datum
zadnje
spremembe
Tip
senzorja
2195 Padavine (mm) 0 mm 25.2.2018 12:30 Generic 0.2 mm
1684 Relativna vlaga 2 m (% RH) 50,33 % RH 25.2.2018 12:30 Generic 0 - 100 %
1683 Temperatura 2 m (°C) -5,08 °C 25.2.2018 12:30 Generic -40 - +60 °C
4223 Smer vetra (°) 317,45 ° 25.2.2018 12:30 Generic 0 - 360
4222 Hitrost vetra (km/h) 27,4 km/h 25.2.2018 12:30 Generic 200 km/h

Pregled podatkov zadnjih 24 ur

Zap.
št.
Datum in čas BOROVNICA
Padavine Relativna
vlaga
2
m
Temperatura
2
m
Smer
vetra
Hitrost
vetra
1 25.2.2018 12:30 0 50,3 -5,1 317,5 27,4
2 25.2.2018 12:00 0 49,2 -5,4 312,8 27,3
3 25.2.2018 11:30 0 49,8 -5,7 323,7 32,7
4 25.2.2018 11:00 0 49,6 -5,9 301,7 23,3
5 25.2.2018 10:30 0 49 -6,3 305,8 19,8
6 25.2.2018 10:00 0 51,7 -6,8 320,5 21,5
7 25.2.2018 09:30 0 54,7 -7,1 300 19,8
8 25.2.2018 09:00 0 57,9 -7,4 290,6 25,1
9 25.2.2018 08:30 0 62,1 -7,8 320,6 21,6
10 25.2.2018 08:00 0 62,4 -7,4 322,1 23,8
11 25.2.2018 07:30 0 64,2 -7,6 340,2 23,9
12 25.2.2018 07:00 0 63,8 -7,5 332,4 19
13 25.2.2018 06:30 0 61,6 -7,3 323,5 20,1
14 25.2.2018 06:00 0 59 -6,9 331 22,9
15 25.2.2018 05:30 0 56,2 -6,5 337,2 30,7
16 25.2.2018 05:00 0 55,5 -6,3 328,4 29
17 25.2.2018 04:30 0 54,9 -6,2 317,5 24,4
18 25.2.2018 04:00 0 53,4 -5,9 311,8 25,8
19 25.2.2018 03:30 0 54,2 -5,7 320,8 22,6
20 25.2.2018 03:00 0 54,6 -5,4 321,1 22,1
21 25.2.2018 02:30 0 54,7 -5,2 328,4 23,6
22 25.2.2018 02:00 0 58,2 -5 338,8 23,2
23 25.2.2018 01:30 0 62,1 -4,9 330,4 18,7
24 25.2.2018 01:00 0 64,8 -4,9 326,1 22,7
25 25.2.2018 00:30 0 67,3 -4,5 330,3 25,6
26 25.2.2018 00:00 0 68,2 -4,2 331,4 18,3
27 24.2.2018 23:30 0 67,2 -3,9 328,4 14,1
28 24.2.2018 23:00 0 65,8 -3,7 323,7 19,8
29 24.2.2018 22:30 0 65,2 -3,5 331,4 22,2
30 24.2.2018 22:00 0 64,5 -3,3 326,6 16,8
31 24.2.2018 21:30 0 64,9 -3,2 321,7 11,9
32 24.2.2018 21:00 0 64,9 -3,2 343,5 11,5
33 24.2.2018 20:30 0 64,2 -3,1 300,5 11,2
34 24.2.2018 20:00 0 62,5 -2,7 303,5 11,4
35 24.2.2018 19:30 0 61,5 -2,4 310,5 12,2
36 24.2.2018 19:00 0 62,4 -2,2 300,7 16,1
37 24.2.2018 18:30 0 63,2 -1,9 305,3 16,8
38 24.2.2018 18:00 0 63,2 -1,6 334,2 24,3
39 24.2.2018 17:30 0 66,3 -1,1 304 21,6
40 24.2.2018 17:00 0 65,7 -0,7 297 18,8
41 24.2.2018 16:30 0 65 -0,2 293,3 15,5
42 24.2.2018 16:00 0 70,6 -0,3 303,8 13
43 24.2.2018 15:30 0 71,3 0 276,3 9,1
44 24.2.2018 15:00 0 71,1 0,2 276,5 11,7
45 24.2.2018 14:30 0 71 0,6 276,3 13,5
46 24.2.2018 14:00 0,2 71,7 0,6 289,1 12,7
47 24.2.2018 13:30 0 72,2 0,5 286,1 17,2
48 24.2.2018 13:00 0 73 0,3 289,4 20,4
© 2011 Ministrstvo za kmetijstvo, gozdarstvo in prehrano. Vse pravice pridržane.